EDT,Max TemperatureF,Mean TemperatureF,Min TemperatureF,Max Dew PointF,MeanDew PointF,Min DewpointF,Max Humidity, Mean Humidity, Min Humidity, Max Sea Level PressureIn, Mean Sea Level PressureIn, Min Sea Level PressureIn, Max VisibilityMiles, Mean VisibilityMiles, Min VisibilityMiles, Max Wind SpeedMPH, Mean Wind SpeedMPH, Max Gust SpeedMPH,PrecipitationIn, CloudCover, Events, WindDirDegrees
2013-10-1,75,61,47,52,47,43,96,66,36,29.96,29.88,29.80,10,10,10,16,4,21,0.00,3,,352
2013-10-2,78,63,48,56,50,45,100,72,43,29.85,29.78,29.70,10,10,8,16,3,22,0.00,1,,271
2013-10-3,74,60,46,45,42,35,80,54,27,30.04,29.97,29.86,10,10,10,17,7,25,0.00,1,,280
2013-10-4,70,57,44,47,42,37,89,63,37,30.09,30.05,30.01,10,10,10,14,3,20,0.00,4,,323
2013-10-5,65,54,42,46,41,36,86,65,43,30.17,30.12,30.08,10,10,10,10,3,13,0.00,6,,343
2013-10-6,61,51,40,45,36,31,80,58,36,30.31,30.25,30.19,10,10,7,13,6,15,0.05,5,Rain,110
2013-10-7,65,56,47,63,55,45,97,92,86,30.23,30.03,29.77,10,6,2,31,8,40,0.43,8,Rain,157
2013-10-8,65,52,38,63,46,35,93,67,40,30.39,30.05,29.79,10,9,4,23,9,29,0.02,4,Rain,288
2013-10-9,64,49,34,42,38,33,92,66,39,30.49,30.42,30.36,10,10,10,12,1,15,0.00,1,Fog,207
2013-10-10,68,53,37,47,42,35,92,69,45,30.35,30.27,30.18,10,10,9,12,1,14,0.00,4,,190
2013-10-11,74,56,38,52,45,37,100,71,41,30.21,30.17,30.12,10,9,1,8,1,10,0.00,4,,16
2013-10-12,59,53,47,50,46,43,93,75,57,30.43,30.36,30.22,10,10,10,12,4,15,0.00,6,,45
2013-10-13,62,51,39,45,42,38,96,74,51,30.46,30.42,30.37,10,10,10,10,3,14,0.00,5,,183
2013-10-14,63,52,41,48,44,39,96,76,56,30.37,30.30,30.23,10,10,10,13,5,18,T,4,Fog-Rain,187
2013-10-15,67,57,47,50,48,45,93,71,48,30.29,30.25,30.20,10,10,10,10,1,14,0.00,6,,22
2013-10-16,61,56,50,54,52,48,96,80,64,30.22,30.06,29.89,10,7,2,16,3,21,0.01,8,,128
2013-10-17,68,59,50,55,53,51,100,79,58,29.89,29.80,29.73,10,7,0,9,3,12,0.01,6,Fog,191
2013-10-18,63,55,46,53,49,41,100,78,56,29.79,29.67,29.58,10,6,0,14,3,18,0.16,6,Fog-Rain,315
2013-10-19,63,51,39,47,41,37,92,68,43,29.90,29.85,29.77,10,10,10,13,4,16,0.00,6,,202
2013-10-20,61,51,41,52,39,25,89,58,27,29.91,29.73,29.65,10,10,9,17,8,26,0.01,5,Rain,233
2013-10-21,60,49,37,45,34,30,80,57,33,30.04,30.00,29.93,10,10,10,16,5,23,0.00,3,,243
2013-10-22,62,51,40,51,48,40,89,77,64,29.97,29.80,29.68,10,10,10,22,9,28,0.02,7,Rain,180
2013-10-23,53,43,32,38,33,28,100,71,41,29.76,29.68,29.58,10,10,8,12,2,16,0.00,4,,310
2013-10-24,49,40,31,33,27,22,85,61,37,29.76,29.66,29.59,10,10,10,18,7,30,0.00,5,,271
2013-10-25,52,40,28,30,27,24,72,55,38,30.05,29.91,29.78,10,10,10,16,6,21,0.00,4,,275
2013-10-26,49,39,28,36,30,23,85,63,41,30.09,29.98,29.84,10,10,9,17,5,23,0.01,7,Rain,205
2013-10-27,54,45,36,38,33,27,86,68,49,29.95,29.83,29.75,10,10,10,16,7,22,0.01,6,Rain,232
2013-10-28,52,42,32,37,27,22,70,57,44,30.33,30.08,29.96,10,10,10,26,6,36,0.02,4,Rain,256
2013-10-29,46,34,21,24,20,17,85,63,34,30.45,30.39,30.34,10,10,10,13,3,16,0.00,0,,285
2013-10-30,47,34,20,25,20,16,92,60,28,30.35,30.24,30.15,10,10,10,12,1,15,0.00,3,,260
2013-10-31,59,41,23,56,39,21,96,78,60,30.25,30.05,29.75,10,7,2,23,5,30,0.27,6,Rain,173